Date,TemperatureHighF,TemperatureAvgF,TemperatureLowF,DewpointHighF,DewpointAvgF,DewpointLowF,HumidityHigh,HumidityAvg,HumidityLow,PressureMaxIn,PressureMinIn,WindSpeedMaxMPH,WindSpeedAvgMPH,GustSpeedMaxMPH,PrecipitationSumIn
2013-4-1,75,62,56,62,57,53,97,84,48,30.09,29.94,5,0,5,0.00
2013-4-2,78,64,50,61,54,48,95,73,42,30.12,29.97,9,1,9,0.00
2013-4-3,66,60,54,63,58,53,98,94,79,30.00,29.83,11,0,11,1.34
2013-4-4,60,55,51,56,52,47,97,90,80,30.03,29.91,8,0,8,0.00
2013-4-5,68,56,49,52,48,45,91,77,52,30.15,30.03,10,0,10,0.00
2013-4-6,72,59,44,56,50,43,94,75,48,30.15,30.03,9,1,9,0.00
2013-4-7,77,65,51,62,56,50,95,77,51,30.09,29.97,9,1,9,0.00
2013-4-8,80,70,59,69,64,58,98,83,59,30.03,29.94,12,2,12,0.00
2013-4-9,83,74,70,74,71,67,95,88,74,30.03,29.91,14,3,14,0.00
2013-4-10,82,75,71,73,70,69,93,86,73,29.97,29.83,13,3,13,0.00
2013-4-11,78,68,54,74,65,52,96,93,87,29.83,29.65,12,1,12,1.42
2013-4-12,74,60,48,53,49,46,95,72,41,30.00,29.83,8,0,8,0.00
2013-4-13,78,64,50,57,51,47,90,66,36,30.03,29.85,6,1,6,0.00
2013-4-14,77,65,58,64,60,56,98,84,51,29.91,29.74,13,1,13,1.65
2013-4-15,80,68,59,75,67,58,98,94,83,29.97,29.80,8,0,8,0.00
2013-4-16,84,76,71,76,72,70,97,89,72,30.09,29.94,10,2,10,0.00
2013-4-17,83,76,71,74,72,70,97,87,73,30.06,29.94,13,1,13,0.00
2013-4-18,83,76,69,75,71,68,96,87,75,29.94,29.80,13,2,13,0.00
2013-4-19,75,57,51,73,53,43,94,88,73,30.15,29.80,8,0,8,0.24
2013-4-21,74,66,54,54,50,43,89,57,38,30.21,30.09,8,1,8,0.24
2013-4-22,79,64,50,66,56,48,94,79,51,30.12,30.00,6,0,6,0.24
2013-4-23,81,72,63,68,66,62,95,81,64,30.09,29.97,10,1,10,0.00
2013-4-24,73,66,58,72,64,56,97,94,91,30.18,30.00,8,0,8,0.12
2013-4-25,74,62,55,58,54,48,95,75,47,30.33,30.18,9,0,9,0.00
2013-4-26,78,66,55,64,56,45,92,71,47,30.27,30.18,8,0,8,0.00
2013-4-27,83,72,64,70,66,62,97,84,63,30.18,30.00,10,1,10,0.00
2013-4-28,74,68,65,72,67,64,97,95,89,30.06,29.91,9,0,9,0.20
2013-4-29,83,70,59,67,64,58,98,83,49,29.97,29.85,6,0,6,0.04
2013-4-30,77,68,64,71,67,63,98,94,80,29.91,29.85,6,0,6,0.16